Regional Weather Roundup
Issued by NWS

Home | Current Version | Previous Version | Text Only | Print | Product List | Glossary Off
Versions: 1 2 3 4 5 6 7 8 9 10 11 12 13 14 15 16 17 18 19 20 21 22 23 24 25 26 27 28 29 30 31 32 33 34 35 36 37 38 39 40 41 42 43 44 45 46 47 48 49 50

050
ASUS43 KOAX 171810
RWRNE

WEATHER ROUNDUP FOR NEBRASKA
NATIONAL WEATHER SERVICE OMAHA NE
1200 PM CST TUE JAN 17 2017

NOTES: SATELLITE DATA IS BEING USED TO AUGMENT CLOUD COVER ABOVE
       12000 FEET.
       "FAIR" INDICATES FEW OR NO CLOUDS BELOW 12,000 FEET WITH NO
       SIGNIFICANT WEATHER AND/OR OBSTRUCTIONS TO VISIBILITY.

  * THESE STATIONS DO NOT REPORT WEATHER SUCH AS RAIN...SNOW OR FOG.

NEZ001>004-019>022-054>056-171900-
NEBRASKA PANHANDLE

CITY           SKY/WX    TMP DP  RH WIND       PRES   REMARKS
SCOTTSBLUFF    SUNNY     34  18  52 CALM      30.03F
6HR MIN TEMP:   9; 6HR MAX TEMP:  35;

ALLIANCE       SUNNY     38  15  39 W15       30.00F WCI  29
6HR MIN TEMP:   6; 6HR MAX TEMP:  38;

CHADRON        CLOUDY    24  14  65 SW5       29.99F WCI  18
6HR MIN TEMP:   3; 6HR MAX TEMP:  26;

KIMBALL        SUNNY     39  29  66 W10       30.02F WCI  32
SIDNEY         SUNNY     38  23  55 SW16      30.03F WCI  29
6HR MIN TEMP:  12; 6HR MAX TEMP:  38;

$$

NEZ057>060-069>072-079>082-171900-
SOUTHWEST NEBRASKA

CITY           SKY/WX    TMP DP  RH WIND       PRES   REMARKS
NORTH PLATTE   SUNNY     37  26  64 W8        30.07F WCI  31
6HR MIN TEMP:  17; 6HR MAX TEMP:  37;

IMPERIAL       SUNNY     36  24  62 W3        30.09F
6HR MIN TEMP:  20; 6HR MAX TEMP:  36;

LEXINGTON      SUNNY     36  27  70 W6        30.08F WCI  31
MCCOOK         SUNNY     36  27  69 W10       30.10F WCI  28
6HR MIN TEMP:  23; 6HR MAX TEMP:  36;

OGALLALA       SUNNY     33  25  71 W6        30.07F WCI  28
$$

NEZ005>010-023>029-035>040-094-171900-
NORTH CENTRAL NEBRASKA

CITY           SKY/WX    TMP DP  RH WIND       PRES   REMARKS
VALENTINE      SUNNY     41  18  39 SW10      30.00F
6HR MIN TEMP:  11; 6HR MAX TEMP:  41;

AINSWORTH      SUNNY     41  27  57 W9        30.01F
BROKEN BOW     SUNNY     34  26  72 W5        30.05F WCI  30
6HR MIN TEMP:  21; 6HR MAX TEMP:  34;

O`NEILL        SUNNY     33  29  85 SW6       30.04F WCI  28
ORD            SUNNY     33  26  75 CALM      30.05F
6HR MIN TEMP:  15; 6HR MAX TEMP:  33;

THEDFORD       SUNNY     43  23  45 SW9       30.03F
$$

NEZ041-046>049-061>064-073>077-083>087-171900-
SOUTH CENTRAL NEBRASKA

CITY           SKY/WX    TMP DP  RH WIND       PRES   REMARKS
GRAND ISLAND   SUNNY     31  28  89 W7        30.08F WCI  24
6HR MIN TEMP:  20; 6HR MAX TEMP:  31;

AURORA         SUNNY     30  27  88 CALM      30.08F
HASTINGS       SUNNY     32  26  78 NW8       30.09F WCI  25
6HR MIN TEMP:  23; 6HR MAX TEMP:  32;

HEBRON         SUNNY     31  27  84 W3        30.11F
HOLDREGE       SUNNY     34  29  85 NW3       30.08F
KEARNEY *      SUNNY     34  27  75 CALM      30.08F
YORK           SUNNY     28  27  93 MISG      30.09F
$$

NEZ011>018-030>034-042>045-171900-
NORTHEAST NEBRASKA

CITY           SKY/WX    TMP DP  RH WIND       PRES   REMARKS
NORFOLK        SUNNY     27  22  81 VRB7      30.06F WCI  19
6HR MIN TEMP:  17; 6HR MAX TEMP:  27;

ALBION         SUNNY     30  26  85 CALM      30.06F FOG
BLAIR          FOG       27  26  96 W3        30.07F VSB 3/4
FREMONT        SUNNY     29  24  82 W8        30.08F WCI  21
TEKAMAH        CLOUDY    27  22  81 W6        30.09F WCI  20
6HR MIN TEMP:  24; 6HR MAX TEMP:  27;

WAYNE          SUNNY     28  24  87 W3        30.07F
$$

NEZ050>053-065>068-078-088>093-171900-
SOUTHEAST NEBRASKA

CITY           SKY/WX    TMP DP  RH WIND       PRES   REMARKS
LINCOLN        SUNNY     32  25  75 W7        30.11F WCI  26
6HR MIN TEMP:  23; 6HR MAX TEMP:  32;

OMAHA EPPLEY   CLOUDY    29  23  78 NW6       30.09F WCI  23
6HR MIN TEMP:  26; 6HR MAX TEMP:  29; 6HR PCP: TRACE;

BEATRICE       SUNNY     32  28  84 W3        30.10F
FALLS CITY     CLOUDY    34  31  88 NW8       30.10F WCI  27
6HR MIN TEMP:  32; 6HR MAX TEMP:  34;

NEBRASKA CITY  CLOUDY    30  30 100 W8        30.09F FOG     WCI  23
PLATTSMOUTH    CLOUDY    29  26  87 W7        30.09S FOG     WCI  22
$$

NEZ044-045-051>053-067-171900-
OMAHA AREA

CITY           SKY/WX    TMP DP  RH WIND       PRES   REMARKS
OMAHA EPPLEY   CLOUDY    29  23  78 NW6       30.09F WCI  23
6HR MIN TEMP:  26; 6HR MAX TEMP:  29; 6HR PCP: TRACE;

BLAIR          FOG       27  26  96 W3        30.07F VSB 3/4
FREMONT        SUNNY     29  24  82 W8        30.08F WCI  21
MILLARD        CLOUDY    31  27  84 W7        30.09F WCI  24
OFFUTT AFB     CLOUDY    30  28  93 W5        30.09F WCI  25
PLATTSMOUTH    CLOUDY    29  26  87 W7        30.09S FOG     WCI  22
WAHOO          FAIR      30  25  81 W3        30.09F
$$




USA.gov is the U.S. government's official web portal to all federal, state and local government web resources and services.